• En España
  • Lista de países
  • Para 7 días
  • Temperatura del agua
  • Mapa Satelital
  • El tiempo en el mapa
  • Informadores
  • user-avatar
    Iniciar sesión

    Tiempo cada hora Yevlakh

    Hoy, 20 Agosto, Lunes

    Tiempo Temperatura Precipitaciones Viento Presión Humedad
    00:00 +27°C° 0 mm 6 mps 759 mmHg 51%
    01:00 +27°C° 0 mm 6 mps 760 mmHg 54%
    02:00 +26°C° 0 mm 5 mps 760 mmHg 56%
    03:00 +26°C° 0 mm 5 mps 760 mmHg 59%
    04:00 +26°C° 0 mm 5 mps 760 mmHg 60%
    05:00 +25°C° 0 mm 4 mps 760 mmHg 62%
    06:00 +25°C° 0 mm 4 mps 761 mmHg 64%
    07:00 +26°C° 0 mm 4 mps 761 mmHg 59%
    08:00 +27°C° 0 mm 5 mps 761 mmHg 55%
    09:00 +28°C° 0 mm 5 mps 761 mmHg 51%
    10:00 +29°C° 0 mm 5 mps 761 mmHg 47%
    11:00 +30°C° 0 mm 5 mps 761 mmHg 43%
    12:00 +32°C° 0 mm 5 mps 761 mmHg 40%
    13:00 +32°C° 0 mm 5 mps 761 mmHg 38%
    14:00 +33°C° 0 mm 5 mps 761 mmHg 37%
    15:00 +33°C° 0 mm 5 mps 761 mmHg 35%
    16:00 +33°C° 0 mm 5 mps 761 mmHg 36%
    17:00 +32°C° 0 mm 5 mps 761 mmHg 37%
    18:00 +30°C° 0 mm 5 mps 761 mmHg 38%
    19:00 +29°C° 0 mm 5 mps 761 mmHg 42%
    20:00 +27°C° 0 mm 5 mps 761 mmHg 46%
    21:00 +26°C° 0 mm 4 mps 762 mmHg 49%
    22:00 +25°C° 0 mm 4 mps 761 mmHg 52%
    23:00 +25°C° 0 mm 3 mps 761 mmHg 54%

    Mañana, 21 Agosto, Martes

    Tiempo Temperatura Precipitaciones Viento Presión Humedad
    00:00 +24°C° 0 mm 3 mps 761 mmHg 57%
    01:00 +24°C° 0 mm 2 mps 761 mmHg 58%
    02:00 +23°C° 0 mm 2 mps 761 mmHg 59%
    03:00 +23°C° 0 mm 2 mps 761 mmHg 60%
    04:00 +23°C° 0 mm 1 mps 761 mmHg 59%
    05:00 +23°C° 0 mm 1 mps 761 mmHg 59%
    06:00 +23°C° 0 mm 1 mps 761 mmHg 58%
    07:00 +25°C° 0 mm 1 mps 761 mmHg 54%
    08:00 +26°C° 0 mm 1 mps 760 mmHg 50%
    09:00 +28°C° 0 mm 1 mps 760 mmHg 45%
    10:00 +29°C° 0 mm 2 mps 760 mmHg 42%
    11:00 +30°C° 0 mm 2 mps 759 mmHg 39%
    12:00 +31°C° 0 mm 3 mps 759 mmHg 35%
    13:00 +33°C° 0 mm 3 mps 758 mmHg 34%
    14:00 +34°C° 0 mm 3 mps 758 mmHg 32%
    15:00 +35°C° 0 mm 3 mps 757 mmHg 31%
    16:00 +34°C° 0 mm 3 mps 757 mmHg 32%
    17:00 +34°C° 0 mm 3 mps 757 mmHg 34%
    18:00 +33°C° 0 mm 3 mps 757 mmHg 35%
    19:00 +31°C° 0 mm 3 mps 758 mmHg 40%
    20:00 +29°C° 0 mm 3 mps 759 mmHg 44%
    21:00 +28°C° 0 mm 4 mps 759 mmHg 49%
    22:00 +27°C° 0 mm 3 mps 759 mmHg 53%
    23:00 +26°C° 0 mm 3 mps 759 mmHg 56%

    Pasado mañana, 22 Agosto, Miércoles

    Tiempo Temperatura Precipitaciones Viento Presión Humedad
    00:00 +26°C° 0 mm 2 mps 759 mmHg 60%
    01:00 +25°C° 0 mm 2 mps 759 mmHg 62%
    02:00 +25°C° 0 mm 1 mps 759 mmHg 63%
    03:00 +22°C° 0 mm 0 mps 759 mmHg 65%
    04:00 +24°C° 0 mm 1 mps 759 mmHg 64%
    05:00 +25°C° 0 mm 1 mps 759 mmHg 63%
    06:00 +25°C° 0 mm 1 mps 759 mmHg 62%
    07:00 +27°C° 0 mm 1 mps 759 mmHg 56%
    08:00 +28°C° 0 mm 2 mps 759 mmHg 49%
    09:00 +30°C° 0 mm 2 mps 759 mmHg 43%
    10:00 +31°C° 0 mm 2 mps 758 mmHg 39%
    11:00 +34°C° 0 mm 2 mps 758 mmHg 35%
    12:00 +35°C° 0 mm 2 mps 757 mmHg 32%
    13:00 +36°C° 0 mm 2 mps 757 mmHg 30%
    14:00 +36°C° 0 mm 2 mps 757 mmHg 28%
    15:00 +37°C° 0 mm 3 mps 756 mmHg 26%
    16:00 +37°C° 0 mm 3 mps 757 mmHg 27%
    17:00 +36°C° 0 mm 3 mps 757 mmHg 28%
    18:00 +35°C° 0 mm 3 mps 757 mmHg 29%
    19:00 +34°C° 0 mm 3 mps 758 mmHg 32%
    20:00 +31°C° 0 mm 3 mps 759 mmHg 34%
    21:00 +30°C° 0 mm 3 mps 759 mmHg 36%
    22:00 +29°C° 0 mm 3 mps 759 mmHg 39%
    23:00 +28°C° 0 mm 2 mps 759 mmHg 41%

    23 Agosto, Jueves

    Tiempo Temperatura Precipitaciones Viento Presión Humedad
    00:00 +27°C° 0 mm 2 mps 760 mmHg 43%
    01:00 +27°C° 0 mm 2 mps 760 mmHg 45%
    02:00 +26°C° 0 mm 1 mps 760 mmHg 46%
    03:00 +26°C° 0 mm 1 mps 760 mmHg 47%
    04:00 +26°C° 0 mm 1 mps 760 mmHg 47%
    05:00 +26°C° 0 mm 1 mps 760 mmHg 47%
    06:00 +26°C° 0 mm 1 mps 760 mmHg 47%
    07:00 +28°C° 0 mm 1 mps 760 mmHg 42%
    08:00 +30°C° 0 mm 1 mps 760 mmHg 37%
    09:00 +32°C° 0 mm 1 mps 760 mmHg 31%
    10:00 +34°C° 0 mm 2 mps 759 mmHg 28%
    11:00 +36°C° 0 mm 2 mps 759 mmHg 26%
    12:00 +37°C° 0 mm 3 mps 759 mmHg 23%
    13:00 +38°C° 0 mm 3 mps 758 mmHg 22%
    14:00 +38°C° 0 mm 4 mps 758 mmHg 21%
    15:00 +40°C° 0 mm 4 mps 758 mmHg 20%
    16:00 +38°C° 0 mm 4 mps 758 mmHg 21%
    17:00 +37°C° 0 mm 4 mps 758 mmHg 22%
    18:00 +37°C° 0 mm 4 mps 759 mmHg 24%
    19:00 +35°C° 0 mm 4 mps 759 mmHg 26%
    20:00 +33°C° 0 mm 4 mps 760 mmHg 28%
    21:00 +30°C° 0 mm 4 mps 760 mmHg 31%
    22:00 +29°C° 0 mm 4 mps 760 mmHg 33%
    23:00 +29°C° 0 mm 3 mps 760 mmHg 35%

    24 Agosto, Viernes

    Tiempo Temperatura Precipitaciones Viento Presión Humedad
    00:00 +28°C° 0 mm 2 mps 760 mmHg 38%
    01:00 +27°C° 0 mm 2 mps 760 mmHg 39%
    02:00 +27°C° 0 mm 2 mps 760 mmHg 40%
    03:00 +26°C° 0 mm 1 mps 760 mmHg 41%
    04:00 +26°C° 0 mm 1 mps 760 mmHg 41%
    05:00 +26°C° 0 mm 1 mps 760 mmHg 40%
    06:00 +27°C° 0 mm 1 mps 760 mmHg 40%
    07:00 +28°C° 0 mm 1 mps 760 mmHg 35%
    08:00 +30°C° 0 mm 1 mps 760 mmHg 31%
    09:00 +32°C° 0 mm 1 mps 760 mmHg 26%
    10:00 +35°C° 0 mm 2 mps 759 mmHg 23%
    11:00 +36°C° 0 mm 2 mps 759 mmHg 21%
    12:00 +37°C° 0 mm 3 mps 758 mmHg 19%
    13:00 +38°C° 0 mm 3 mps 758 mmHg 18%
    14:00 +38°C° 0 mm 3 mps 757 mmHg 18%
    15:00 +40°C° 0 mm 4 mps 757 mmHg 17%
    16:00 +38°C° 0 mm 4 mps 757 mmHg 18%
    17:00 +37°C° 0 mm 3 mps 757 mmHg 19%
    18:00 +37°C° 0 mm 3 mps 757 mmHg 21%
    19:00 +35°C° 0 mm 3 mps 758 mmHg 23%
    20:00 +33°C° 0 mm 4 mps 758 mmHg 25%
    21:00 +30°C° 0 mm 4 mps 759 mmHg 27%
    22:00 +29°C° 0 mm 3 mps 758 mmHg 28%
    23:00 +29°C° 0 mm 3 mps 758 mmHg 29%

    25 Agosto, Sábado

    Tiempo Temperatura Precipitaciones Viento Presión Humedad
    00:00 +28°C° 0 mm 2 mps 758 mmHg 31%
    01:00 +27°C° 0 mm 2 mps 758 mmHg 31%
    02:00 +27°C° 0 mm 1 mps 758 mmHg 32%
    03:00 +26°C° 0 mm 1 mps 758 mmHg 33%
    04:00 +26°C° 0 mm 1 mps 758 mmHg 33%
    05:00 +26°C° 0 mm 1 mps 758 mmHg 33%
    06:00 +27°C° 0 mm 1 mps 759 mmHg 33%
    07:00 +29°C° 0 mm 1 mps 758 mmHg 28%
    08:00 +31°C° 0 mm 1 mps 758 mmHg 24%
    09:00 +33°C° 0 mm 1 mps 758 mmHg 20%
    10:00 +34°C° 0 mm 1 mps 757 mmHg 18%
    11:00 +36°C° 0 mm 2 mps 757 mmHg 17%
    12:00 +38°C° 0 mm 3 mps 757 mmHg 15%
    13:00 +38°C° 0 mm 3 mps 756 mmHg 14%
    14:00 +39°C° 0 mm 3 mps 756 mmHg 14%
    15:00 +41°C° 0 mm 4 mps 755 mmHg 13%
    16:00 +39°C° 0 mm 3 mps 756 mmHg 15%
    17:00 +38°C° 0 mm 3 mps 756 mmHg 16%
    18:00 +37°C° 0 mm 3 mps 756 mmHg 18%
    19:00 +35°C° 0 mm 3 mps 756 mmHg 20%
    20:00 +33°C° 0 mm 3 mps 756 mmHg 21%
    21:00 +30°C° 0 mm 3 mps 757 mmHg 23%
    22:00 +30°C° 0 mm 3 mps 757 mmHg 25%
    23:00 +29°C° 0 mm 2 mps 757 mmHg 26%
    Mostrar más